カタログに戻る

NOAA 16 DEB

運用中SSO
NORAD 41147·DEBRIS·🇺🇸 United States

打ち上げ Sep 21, 2000 から Vandenberg Space Force Base

Loading…

次のパス (今後24時間)

TLE

最新Source: Space-Track

元期: Sep 12, 2026, 08:24 UTC

1 41147U 00055CE  26255.35055341  .00003057  00000-0  14941-2 0  9999
2 41147  98.9517 297.5744 0069076 171.8302 188.4014 14.17476437550927

AllMySatでNOAA 16 DEBをリアルタイム追跡

Download on the App Store